[[{"header":{"parameterUnit":"m.s-1","parameterCategory":2,"la1":30.2991,"la2":30.254,"lo1":-89.0895,"lo2":-89.0444,"dy":0.0017,"dx":0.0017,"nx":28,"ny":28,"refTime":"2024-04-30T09:00:00:Z","depth":"0","parameterNumber":2,"parameterNumberName":"U-component_of_CURRENTS"},"data":[0,0,0,0,0,0,0,0,0,0,0,0,0,0,0,0,0,0,0,0,0,0,0,0,0,0,0,0,0,0,0,0,0,0,0,0,0,0,0,0,0,0,0,0,0,0,0,0,0,0,0,0,0,0,0,0,0,0,0.3732,0.3733,0,0.3861,0.3862,0.3863,0.387,0.3869,0.3868,0.3867,0.3865,0.3866,0.3867,0,0,0,0,0,0,0,0,0,0,0,0,0,0.3473,0.3477,0.3731,0.3733,0.3736,0.3861,0.3862,0.3863,0.387,0.3869,0.3868,0.3867,0.3865,0.3866,0.3867,0,0,0,0,0,0,0,0,0,0,0,0,0,0.3587,0.3479,0.3731,0.3758,0.3763,0.3861,0.3862,0.3864,0.387,0.3869,0.3867,0.3866,0.3865,0.3866,0.3867,0.3904,0,0,0.3871,0.3872,0,0,0,0,0,0,0,0,0.358,0.3595,0.3752,0.3757,0.3762,0.3853,0.3771,0.3873,0.3871,0.3823,0.3867,0.3865,0.3854,0.3856,0.3877,0.3904,0.3904,0.3871,0.3872,0.3873,0.3873,0,0,0,0,0,0,0,0.3572,0.359,0.3777,0.3755,0.3761,0.3759,0.3773,0.379,0.3838,0.3827,0.383,0.3854,0.3854,0.3876,0.3877,0.3904,0.3871,0.3872,0.3873,0.3874,0.4021,0.4024,0,0,0,0,0,0,0.3572,0.3583,0.3773,0.3781,0.3672,0.3765,0.3781,0.382,0.3841,0.3846,0.3855,0.3854,0.3875,0.3875,0.3877,0.3973,0.3873,0.3874,0.3875,0.4018,0.4021,0.4025,0,0,0,0,0,0,0.3566,0.3588,0.3768,0.3688,0.3712,0.3772,0.3816,0.3824,0.3855,0.3865,0.3865,0.388,0.3873,0.3875,0.3916,0.397,0.3874,0.3876,0.4014,0.4019,0.4023,0.4131,0,0,0,0,0,0,0.3558,0.3585,0.3612,0.3689,0.3716,0.3857,0.3818,0.3828,0.3875,0.3874,0.3886,0.3884,0.3872,0.3914,0.3917,0.397,0.3877,0.401,0.4016,0.4022,0.4124,0.4139,0.4152,0,0,0,0,0,0.3549,0.3599,0.3613,0.3636,0.3753,0.3861,0.3876,0.3907,0.3878,0.3922,0.3917,0.3884,0.3954,0.3918,0.3921,0.3975,0.4007,0.4014,0.4021,0.4118,0.4136,0.4152,0,0,0,0,0,0,0.3501,0.3608,0.3624,0.3703,0.3789,0.3865,0.3904,0.3919,0.3953,0.3937,0.3921,0.3922,0.398,0.3968,0.3929,0.4038,0.3977,0.3985,0.4049,0.4067,0.4081,0.407,0.3878,0,0,0,0,0,0.3505,0.3572,0.3671,0.3738,0.3778,0.3839,0.3881,0.3911,0.3954,0.3967,0.3978,0.3987,0.4014,0.4029,0.4051,0.4108,0.4093,0.4148,0.4162,0.4174,0.417,0.4211,0.4228,0.4048,0.4048,0.4048,0,0,0.3508,0.3573,0.3612,0.3732,0.3787,0.3867,0.386,0.3942,0.4003,0.396,0.4029,0.4036,0.404,0.4109,0.4134,0.4103,0.4221,0.4183,0.4193,0.4182,0.422,0.4237,0.4252,0.4053,0.4052,0.4051,0,0,0.354,0.3603,0.3663,0.3739,0.3842,0.3895,0.3923,0.4016,0.4051,0.4131,0.4109,0.4152,0.4199,0.422,0.423,0.4338,0.4294,0.4348,0.4412,0.4453,0.4468,0.448,0.4491,0.4503,0.4357,0.4357,0.4357,0,0.3528,0.3625,0.3699,0.3774,0.3838,0.3908,0.3985,0.4048,0.4142,0.4175,0.4167,0.4245,0.4255,0.4321,0.4365,0.437,0.4369,0.4343,0.447,0.4482,0.4493,0.45,0.4512,0.4363,0.4362,0.4362,0.4361,0,0.3608,0.3683,0.3728,0.3845,0.3927,0.4013,0.4113,0.4183,0.4225,0.4282,0.4366,0.4391,0.4429,0.4458,0.4445,0.4533,0.45,0.448,0.442,0.4517,0.4519,0.453,0.4372,0.437,0.4368,0.4366,0,0,0.3568,0.3747,0.3756,0.3813,0.397,0.4039,0.4154,0.4277,0.433,0.4422,0.449,0.4567,0.4568,0.458,0.4577,0.4622,0.4712,0.459,0.4589,0.4587,0.4784,0.4643,0.4641,0.4712,0.4715,0.4717,0.4756,0,0.3598,0.3733,0.3825,0.3946,0.4024,0.4128,0.4224,0.4336,0.4428,0.4515,0.4564,0.463,0.4619,0.4637,0.4686,0.4698,0.4744,0.4701,0.4699,0.4699,0.4552,0.465,0.4486,0.4497,0.4766,0.4768,0.4769,0,0.3623,0.3719,0.3841,0.3989,0.4029,0.4106,0.4253,0.4355,0.4497,0.4567,0.4648,0.4685,0.4765,0.4739,0.4817,0.4788,0.4799,0.4808,0.4809,0.4641,0.4578,0.4444,0.4506,0.446,0.4785,0.4784,0.4782,0,0.3543,0.3711,0.3803,0.3861,0.4049,0.4101,0.4196,0.4353,0.4424,0.4593,0.4645,0.4754,0.478,0.484,0.4866,0.4852,0.4932,0.4912,0.4796,0.4785,0.4623,0.4593,0.4622,0.4975,0.4975,0.4975,0.4975,0,0.3534,0.3596,0.376,0.3815,0.3887,0.4043,0.4128,0.425,0.44,0.4469,0.4639,0.469,0.4807,0.4861,0.4894,0.4867,0.4957,0.4816,0.4795,0.4656,0.463,0.4559,0.4537,0.4977,0.4976,0.4976,0.4976,0,0.3423,0.3551,0.3638,0.3812,0.385,0.3893,0.4045,0.4106,0.4287,0.4379,0.4428,0.4632,0.4725,0.4817,0.4907,0.486,0.4754,0.4852,0.4665,0.4619,0.4419,0.4407,0.419,0.4071,0.4723,0.472,0.4717,0,0.338,0.342,0.3568,0.3593,0.3661,0.3747,0.3797,0.4006,0.4079,0.4318,0.4338,0.4498,0.4563,0.4658,0.4665,0.4696,0.464,0.4531,0.4471,0.4391,0.4366,0.4208,0.4114,0.4316,0.431,0.4306,0.4302,0,0.3264,0.3309,0.3376,0.3425,0.3472,0.3537,0.3636,0.367,0.3905,0.3999,0.4121,0.4204,0.4342,0.4319,0.4383,0.4387,0.4322,0.4429,0.4418,0.4102,0.3861,0.3741,0.4301,0.426,0.4265,0.4268,0.427,0.4272,0.312,0.3115,0.3183,0.3212,0.3268,0.3297,0.3286,0.3403,0.3473,0.3574,0.3786,0.3854,0.4013,0.4083,0.4068,0.3997,0.3986,0.3922,0.3933,0.3794,0.3607,0.4046,0.393,0.3932,0.3934,0.3936,0.3937,0,0.2901,0.293,0.296,0.2988,0.2974,0.3082,0.3141,0.311,0.3099,0.3274,0.3342,0.3487,0.3508,0.3661,0.3697,0.3573,0.3408,0.351,0.3315,0.3264,0.3739,0.3654,0.3384,0.3384,0.3384,0.3384,0.3384,0.3384,0.2786,0.2736,0.2769,0.268,0.2702,0.2637,0.2633,0.2625,0.2721,0.2765,0.2863,0.3008,0.3346,0.3496,0.3459,0.3365,0.3168,0.2965,0.2994,0.3437,0.3478,0.3518,0.3436,0.3124,0.3124,0.2383,0.2378,0.2374]},{"header":{"parameterUnit":"m.s-1","parameterCategory":2,"la1":30.2991,"la2":30.254,"lo1":-89.0895,"lo2":-89.0444,"dy":0.0017,"dx":0.0017,"nx":28,"ny":28,"refTime":"2024-04-30T09:00:00:Z","depth":"0","parameterNumber":3,"parameterNumberName":"V-component_of_CURRENTS"},"data":[0,0,0,0,0,0,0,0,0,0,0,0,0,0,0,0,0,0,0,0,0,0,0,0,0,0,0,0,0,0,0,0,0,0,0,0,0,0,0,0,0,0,0,0,0,0,0,0,0,0,0,0,0,0,0,0,0,0,-0.0147,-0.0148,0,-0.0182,-0.0182,-0.0182,-0.02,-0.02,-0.02,-0.02,-0.0197,-0.0197,-0.0197,0,0,0,0,0,0,0,0,0,0,0,0,0,-0.0082,-0.0083,-0.0147,-0.0148,-0.0148,-0.0182,-0.0182,-0.0182,-0.02,-0.02,-0.02,-0.02,-0.0197,-0.0197,-0.0197,0,0,0,0,0,0,0,0,0,0,0,0,0,-0.0111,-0.0083,-0.0147,-0.0162,-0.0164,-0.0182,-0.0182,-0.0183,-0.02,-0.02,-0.02,-0.02,-0.0197,-0.0197,-0.0197,-0.0191,0,0,-0.0196,-0.0196,0,0,0,0,0,0,0,0,-0.011,-0.0114,-0.0159,-0.0161,-0.0163,-0.0188,-0.0158,-0.0184,-0.02,-0.0185,-0.02,-0.02,-0.0191,-0.0192,-0.0196,-0.0191,-0.0191,-0.0196,-0.0196,-0.0196,-0.0196,0,0,0,0,0,0,0,-0.0108,-0.0112,-0.016,-0.016,-0.0162,-0.0162,-0.0166,-0.0163,-0.0185,-0.0186,-0.0188,-0.0193,-0.0192,-0.0197,-0.0196,-0.0191,-0.0196,-0.0196,-0.0195,-0.0195,-0.0196,-0.0196,0,0,0,0,0,0,-0.0107,-0.011,-0.0159,-0.0161,-0.0138,-0.0163,-0.0168,-0.0179,-0.0186,-0.0188,-0.0193,-0.0194,-0.0197,-0.0197,-0.0196,-0.0195,-0.0196,-0.0195,-0.0195,-0.0196,-0.0196,-0.0196,0,0,0,0,0,0,-0.0105,-0.0111,-0.0157,-0.0137,-0.0143,-0.0164,-0.0176,-0.0179,-0.0183,-0.0192,-0.0193,-0.0194,-0.0197,-0.0197,-0.0191,-0.0194,-0.0195,-0.0195,-0.0196,-0.0196,-0.0196,-0.0189,0,0,0,0,0,0,-0.0103,-0.011,-0.0116,-0.0137,-0.0144,-0.0159,-0.0176,-0.018,-0.0187,-0.0189,-0.0193,-0.0193,-0.0197,-0.0192,-0.0191,-0.0194,-0.0195,-0.0195,-0.0196,-0.0196,-0.0189,-0.0188,-0.0188,0,0,0,0,0,-0.0101,-0.0102,-0.0117,-0.0122,-0.0153,-0.0158,-0.0161,-0.0176,-0.0187,-0.0182,-0.019,-0.0193,-0.0194,-0.0191,-0.0191,-0.0194,-0.0195,-0.0196,-0.0196,-0.0189,-0.0189,-0.0188,0,0,0,0,0,0,-0.007,-0.0105,-0.0121,-0.0132,-0.0143,-0.0162,-0.0158,-0.0174,-0.0177,-0.0176,-0.0189,-0.0189,-0.0188,-0.019,-0.0187,-0.0196,-0.0198,-0.0198,-0.0192,-0.0192,-0.0192,-0.0186,-0.0194,0,0,0,0,0,-0.007,-0.0084,-0.0109,-0.0116,-0.0119,-0.014,-0.0145,-0.0155,-0.0163,-0.0166,-0.0174,-0.0182,-0.019,-0.019,-0.0192,-0.0191,-0.0199,-0.0195,-0.0195,-0.0195,-0.019,-0.0221,-0.0223,-0.0198,-0.0198,-0.0198,0,0,-0.0063,-0.0081,-0.0091,-0.0112,-0.0119,-0.0116,-0.0142,-0.0142,-0.0144,-0.0163,-0.0163,-0.0178,-0.0189,-0.0192,-0.0192,-0.0193,-0.0203,-0.0196,-0.0195,-0.0191,-0.0221,-0.0224,-0.0226,-0.0198,-0.0198,-0.0198,0,0,-0.0038,-0.0066,-0.0062,-0.007,-0.0081,-0.0095,-0.0094,-0.0112,-0.0123,-0.0126,-0.0147,-0.0165,-0.0167,-0.0186,-0.0193,-0.0194,-0.0202,-0.0196,-0.019,-0.022,-0.0222,-0.0224,-0.0222,-0.0224,-0.0197,-0.0197,-0.0197,0,-0.0021,-0.0027,-0.0058,-0.0049,-0.0052,-0.0083,-0.0069,-0.0084,-0.0102,-0.0113,-0.0119,-0.0154,-0.0166,-0.0185,-0.019,-0.0194,-0.0201,-0.0189,-0.022,-0.0222,-0.0225,-0.0222,-0.0224,-0.0196,-0.0197,-0.0197,-0.0197,0,0.0013,0.0005,0.0013,0.0006,-0.0001,0.0008,-0.0019,-0.003,-0.0051,-0.0076,-0.01,-0.0126,-0.0147,-0.0163,-0.0175,-0.0203,-0.0198,-0.0216,-0.0219,-0.0227,-0.0223,-0.0226,-0.0196,-0.0196,-0.0196,-0.0196,0,0,0.0073,0.0041,0.0049,0.005,0.0028,0.0034,0.0021,0.0002,-0.0002,-0.0041,-0.0051,-0.0095,-0.0124,-0.0135,-0.0164,-0.0198,-0.0222,-0.0213,-0.0215,-0.0208,-0.0265,-0.0231,-0.0231,-0.025,-0.025,-0.0251,-0.025,0,0.0119,0.014,0.0108,0.0129,0.014,0.0097,0.0092,0.0064,0.0033,0.0016,-0.0044,-0.0055,-0.0109,-0.0111,-0.0162,-0.0197,-0.0231,-0.0219,-0.026,-0.0261,-0.0229,-0.0234,-0.0207,-0.0201,-0.0253,-0.0253,-0.0253,0,0.0178,0.0181,0.0208,0.0187,0.019,0.0197,0.0183,0.0173,0.0121,0.0097,0.0047,0.0005,-0.0046,-0.0087,-0.0174,-0.0162,-0.0214,-0.0253,-0.0254,-0.0228,-0.0233,-0.0206,-0.0204,-0.0385,-0.0257,-0.0257,-0.0257,0,0.0257,0.0253,0.0276,0.0274,0.025,0.0255,0.0246,0.0204,0.0213,0.0158,0.017,0.007,0.0068,-0.0038,-0.0116,-0.0148,-0.0196,-0.0249,-0.0271,-0.0268,-0.0253,-0.0248,-0.043,-0.032,-0.032,-0.032,-0.032,0,0.0323,0.0347,0.0319,0.0339,0.0378,0.033,0.0366,0.0335,0.0315,0.0359,0.0231,0.0268,0.0079,0.003,-0.0082,-0.0159,-0.0169,-0.0263,-0.027,-0.0247,-0.0241,-0.0404,-0.0505,-0.032,-0.032,-0.032,-0.032,0,0.0414,0.039,0.0424,0.0413,0.042,0.0454,0.0471,0.0498,0.046,0.052,0.0519,0.0428,0.0371,0.02,0.006,-0.0073,-0.0261,-0.02,-0.0141,-0.0143,-0.0361,-0.046,-0.0615,-0.0692,-0.0248,-0.0247,-0.0246,0,0.0461,0.0487,0.0505,0.0542,0.0548,0.0585,0.0624,0.0589,0.0632,0.0656,0.0712,0.0654,0.0666,0.0456,0.02,-0.0,-0.0186,-0.0128,-0.0205,-0.0365,-0.0482,-0.0562,-0.0623,-0.0177,-0.0176,-0.0175,-0.0174,0,0.056,0.0567,0.0594,0.0668,0.072,0.0774,0.0828,0.0888,0.0885,0.0953,0.1049,0.1063,0.085,0.065,0.0335,0.0177,-0.0256,-0.0114,-0.0313,-0.0467,-0.0534,-0.0611,-0.0169,-0.0166,-0.0167,-0.0167,-0.0168,-0.0168,0.0646,0.0686,0.0724,0.0797,0.0863,0.0959,0.103,0.111,0.1225,0.134,0.1335,0.1409,0.1054,0.0629,0.0358,-0.015,-0.0182,-0.0322,-0.0431,-0.0498,-0.058,-0.0097,-0.0086,-0.0087,-0.0087,-0.0087,-0.0088,0,0.0739,0.0778,0.0852,0.0934,0.1025,0.1035,0.1165,0.1251,0.1428,0.1566,0.1663,0.1592,0.1153,0.0669,-0.0018,-0.0407,-0.0575,-0.0625,-0.0771,-0.0821,-0.0416,-0.0423,-0.0444,-0.0444,-0.0444,-0.0444,-0.0444,-0.0443,0.079,0.0872,0.0898,0.1056,0.1124,0.1253,0.1337,0.1489,0.1616,0.1827,0.192,0.195,0.1624,0.0324,-0.057,-0.0783,-0.107,-0.1113,-0.1273,-0.1042,-0.1024,-0.1006,-0.1039,-0.1189,-0.119,-0.163,-0.1635,-0.1638]}],[{"header":{"parameterUnit":"m.s-1","parameterCategory":2,"la1":30.2991,"la2":30.254,"lo1":-89.0895,"lo2":-89.0444,"dy":0.0017,"dx":0.0017,"nx":28,"ny":28,"refTime":"2024-04-30T09:00:00:Z","depth":"2","parameterNumber":2,"parameterNumberName":"U-component_of_CURRENTS"},"data":[0,0,0,0,0,0,0,0,0,0,0,0,0,0,0,0,0,0,0,0,0,0,0,0,0,0,0,0,0,0,0,0,0,0,0,0,0,0,0,0,0,0,0,0,0,0,0,0,0,0,0,0,0,0,0,0,0,0,0.2647,0.2648,0,0.2707,0.2707,0.2708,0.273,0.273,0.273,0.273,0.2756,0.2757,0.2758,0,0,0,0,0,0,0,0,0,0,0,0,0,0.258,0.2581,0.2647,0.2648,0.2649,0.2707,0.2707,0.2708,0.273,0.273,0.273,0.273,0.2756,0.2757,0.2758,0,0,0,0,0,0,0,0,0,0,0,0,0,0.2621,0.2581,0.2647,0.2667,0.267,0.2706,0.2707,0.2708,0.273,0.273,0.273,0.273,0.2756,0.2757,0.2758,0.277,0,0,0.2762,0.2762,0,0,0,0,0,0,0,0,0.2618,0.2623,0.2664,0.2666,0.2669,0.2711,0.2693,0.2727,0.2731,0.2707,0.273,0.273,0.2739,0.2741,0.2753,0.2771,0.2772,0.2762,0.2763,0.2763,0.2764,0,0,0,0,0,0,0,0.2616,0.2621,0.267,0.2664,0.2668,0.2683,0.2688,0.27,0.2722,0.2709,0.2711,0.2718,0.274,0.2751,0.2753,0.2772,0.2762,0.2763,0.2764,0.2764,0.292,0.2923,0,0,0,0,0,0,0.2608,0.2618,0.2668,0.2672,0.2643,0.2684,0.269,0.2697,0.2723,0.2727,0.2718,0.2719,0.2749,0.2752,0.2754,0.2843,0.2763,0.2764,0.2765,0.2917,0.2921,0.2924,0,0,0,0,0,0,0.2607,0.2612,0.2666,0.2647,0.2655,0.2685,0.2694,0.2699,0.2731,0.2731,0.2734,0.2748,0.2749,0.2753,0.2794,0.2841,0.2765,0.2766,0.2913,0.2918,0.2923,0.2973,0,0,0,0,0,0,0.2604,0.2611,0.2621,0.2646,0.2656,0.2717,0.2694,0.27,0.2735,0.2737,0.2757,0.2758,0.2749,0.2793,0.2796,0.2842,0.2767,0.2908,0.2915,0.2921,0.2967,0.2979,0.299,0,0,0,0,0,0.2602,0.2623,0.2621,0.2628,0.2666,0.2719,0.2727,0.2746,0.2737,0.2771,0.2779,0.2758,0.2836,0.2796,0.2798,0.2846,0.2905,0.2913,0.292,0.2962,0.2977,0.299,0,0,0,0,0,0,0.2596,0.2628,0.2627,0.2654,0.2694,0.2724,0.2755,0.2761,0.2794,0.2797,0.2785,0.2789,0.2855,0.2849,0.2804,0.2917,0.2874,0.2883,0.2906,0.2919,0.293,0.2924,0.2768,0,0,0,0,0,0.2599,0.2631,0.2657,0.2687,0.2706,0.2732,0.2755,0.2773,0.28,0.2815,0.2831,0.2854,0.2887,0.2899,0.2934,0.2975,0.2974,0.3017,0.3029,0.3038,0.304,0.3079,0.3093,0.2949,0.2949,0.2949,0,0,0.2609,0.2629,0.2648,0.269,0.2719,0.2752,0.2748,0.2801,0.283,0.2812,0.2868,0.2899,0.2913,0.2974,0.3003,0.2969,0.3084,0.3048,0.3055,0.3052,0.3088,0.3102,0.3114,0.2955,0.2954,0.2953,0,0,0.2644,0.2661,0.2696,0.2731,0.278,0.2792,0.2812,0.286,0.2887,0.2939,0.2946,0.299,0.3042,0.3057,0.3067,0.3159,0.3153,0.3201,0.3232,0.3271,0.3282,0.3291,0.3318,0.3329,0.3192,0.3192,0.3192,0,0.2651,0.2683,0.2718,0.2757,0.2778,0.281,0.2841,0.288,0.2939,0.297,0.297,0.3075,0.3072,0.3136,0.3171,0.3178,0.3211,0.3168,0.3281,0.3291,0.3299,0.3324,0.3336,0.3195,0.3195,0.3195,0.3194,0,0.2697,0.2731,0.2761,0.2805,0.2841,0.2883,0.2924,0.2979,0.3005,0.304,0.3137,0.3157,0.3208,0.3235,0.322,0.3306,0.3314,0.3296,0.3232,0.3316,0.3338,0.335,0.32,0.3199,0.3198,0.3197,0,0,0.2682,0.277,0.278,0.2806,0.2863,0.2899,0.2959,0.3019,0.3059,0.3145,0.32,0.3272,0.33,0.3316,0.3332,0.3364,0.3436,0.3364,0.3365,0.3366,0.3541,0.3439,0.3441,0.3455,0.3457,0.3459,0.3533,0,0.2698,0.2767,0.2802,0.2864,0.2894,0.2944,0.2986,0.3055,0.3111,0.3184,0.3247,0.3317,0.3327,0.3361,0.3399,0.3439,0.347,0.3418,0.3482,0.3483,0.3361,0.3451,0.3205,0.3242,0.3544,0.3546,0.3547,0,0.2707,0.2755,0.2805,0.288,0.2896,0.2933,0.3004,0.3065,0.317,0.3218,0.3316,0.3367,0.3455,0.3432,0.3545,0.3528,0.3539,0.3558,0.3561,0.3451,0.3401,0.321,0.3251,0.3565,0.3564,0.3562,0.3561,0,0.2658,0.275,0.2782,0.281,0.2895,0.2932,0.2988,0.3081,0.3127,0.3265,0.3309,0.3429,0.3496,0.3555,0.3594,0.3591,0.3695,0.3677,0.3599,0.3591,0.3382,0.3351,0.3736,0.3736,0.3736,0.3736,0.3735,0,0.2633,0.2664,0.2768,0.2792,0.2827,0.2917,0.2967,0.3048,0.3147,0.3201,0.3335,0.3386,0.3538,0.3607,0.3625,0.365,0.3718,0.3622,0.361,0.3395,0.3367,0.364,0.3628,0.3738,0.3738,0.3737,0.3737,0,0.2545,0.2621,0.2662,0.2766,0.2801,0.2833,0.2938,0.2977,0.3104,0.318,0.323,0.3393,0.3505,0.3604,0.3701,0.3681,0.3703,0.3679,0.3415,0.337,0.3571,0.3562,0.3627,0.3624,0.3622,0.362,0.3618,0,0.2497,0.2513,0.2617,0.2638,0.268,0.2753,0.2787,0.293,0.2976,0.3155,0.3175,0.3341,0.3401,0.3524,0.3548,0.3583,0.3647,0.3349,0.3277,0.3581,0.3564,0.3558,0.3552,0.3032,0.3026,0.3021,0.3017,0,0.2396,0.2432,0.2471,0.2517,0.2562,0.2601,0.2687,0.2707,0.2875,0.2944,0.3038,0.3113,0.3272,0.3226,0.3301,0.3273,0.333,0.3243,0.3641,0.3089,0.3024,0.3006,0.3019,0.297,0.2975,0.2978,0.2981,0.2983,0.2308,0.2296,0.2359,0.2379,0.2425,0.2441,0.2438,0.253,0.2581,0.2675,0.2819,0.2866,0.297,0.2967,0.2889,0.2862,0.309,0.297,0.2985,0.3006,0.2914,0.2847,0.2744,0.2747,0.275,0.2753,0.2755,0,0.2197,0.2205,0.2221,0.2248,0.2232,0.2311,0.2349,0.2328,0.234,0.2473,0.2542,0.24,0.2401,0.2491,0.2396,0.2414,0.238,0.2307,0.2251,0.2301,0.2344,0.2217,0.1863,0.186,0.1856,0.1854,0,0,0.2147,0.2115,0.2117,0.2058,0.2072,0.2026,0.202,0.2017,0.2082,0.2073,0.2101,0.2309,0.2438,0.2119,0.2097,0.1965,0.2107,0.1885,0.2613,0.2599,0.2638,0.2752,0.2616,0,0,0,0,0]},{"header":{"parameterUnit":"m.s-1","parameterCategory":2,"la1":30.2991,"la2":30.254,"lo1":-89.0895,"lo2":-89.0444,"dy":0.0017,"dx":0.0017,"nx":28,"ny":28,"refTime":"2024-04-30T09:00:00:Z","depth":"2","parameterNumber":3,"parameterNumberName":"V-component_of_CURRENTS"},"data":[0,0,0,0,0,0,0,0,0,0,0,0,0,0,0,0,0,0,0,0,0,0,0,0,0,0,0,0,0,0,0,0,0,0,0,0,0,0,0,0,0,0,0,0,0,0,0,0,0,0,0,0,0,0,0,0,0,0,-0.0084,-0.0084,0,-0.0135,-0.0136,-0.0136,-0.0191,-0.0191,-0.0192,-0.0193,-0.0237,-0.0237,-0.0238,0,0,0,0,0,0,0,0,0,0,0,0,0,-0.0052,-0.0053,-0.0084,-0.0084,-0.0085,-0.0135,-0.0136,-0.0136,-0.019,-0.0191,-0.0192,-0.0193,-0.0237,-0.0237,-0.0238,0,0,0,0,0,0,0,0,0,0,0,0,0,-0.0082,-0.0053,-0.0084,-0.0117,-0.0121,-0.0135,-0.0136,-0.0137,-0.019,-0.0191,-0.0192,-0.0193,-0.0237,-0.0237,-0.0238,-0.0222,0,0,-0.0241,-0.0241,0,0,0,0,0,0,0,0,-0.008,-0.0083,-0.0112,-0.0115,-0.0119,-0.0157,-0.0141,-0.0165,-0.019,-0.0165,-0.0193,-0.0194,-0.0208,-0.0211,-0.022,-0.0224,-0.0226,-0.0241,-0.0241,-0.0241,-0.0242,0,0,0,0,0,0,0,-0.0078,-0.0081,-0.0105,-0.0112,-0.0117,-0.0136,-0.0142,-0.0146,-0.018,-0.0167,-0.0171,-0.0175,-0.021,-0.0219,-0.0221,-0.0227,-0.0241,-0.0241,-0.0242,-0.0242,-0.0248,-0.0248,0,0,0,0,0,0,-0.0068,-0.0079,-0.0103,-0.0106,-0.0101,-0.0136,-0.0142,-0.0144,-0.0181,-0.0187,-0.0174,-0.0177,-0.0217,-0.022,-0.0223,-0.0212,-0.0241,-0.0242,-0.0243,-0.0248,-0.0248,-0.0248,0,0,0,0,0,0,-0.0067,-0.0069,-0.0101,-0.0093,-0.0099,-0.0135,-0.0138,-0.0145,-0.0157,-0.0186,-0.0193,-0.0179,-0.0218,-0.0222,-0.0227,-0.0214,-0.0243,-0.0243,-0.0249,-0.0248,-0.0248,-0.0187,0,0,0,0,0,0,-0.0066,-0.0069,-0.0067,-0.0093,-0.0099,-0.01,-0.0137,-0.0145,-0.0157,-0.0162,-0.0192,-0.0198,-0.0219,-0.0225,-0.0227,-0.0216,-0.0244,-0.0249,-0.0249,-0.0248,-0.0189,-0.0184,-0.018,0,0,0,0,0,-0.0064,-0.0049,-0.0066,-0.007,-0.0095,-0.0099,-0.0104,-0.0134,-0.0156,-0.0151,-0.0177,-0.0197,-0.0223,-0.0225,-0.0228,-0.0216,-0.025,-0.0249,-0.0248,-0.0191,-0.0185,-0.018,0,0,0,0,0,0,-0.0025,-0.0054,-0.0074,-0.0066,-0.008,-0.0108,-0.0103,-0.0129,-0.0146,-0.0149,-0.0186,-0.0192,-0.0196,-0.0213,-0.0214,-0.0218,-0.0242,-0.0241,-0.0198,-0.0192,-0.0188,-0.0172,-0.0245,0,0,0,0,0,-0.0017,-0.002,-0.0045,-0.0038,-0.0042,-0.0074,-0.008,-0.0099,-0.0117,-0.0127,-0.0156,-0.018,-0.0193,-0.0198,-0.0214,-0.0207,-0.0228,-0.0205,-0.02,-0.0196,-0.0186,-0.0211,-0.0207,-0.0245,-0.0245,-0.0245,0,0,-0.0002,-0.0015,-0.0019,-0.0031,-0.0044,-0.0031,-0.008,-0.0077,-0.0071,-0.0126,-0.0129,-0.0164,-0.0189,-0.0189,-0.0192,-0.0201,-0.0196,-0.0195,-0.0191,-0.0183,-0.0209,-0.0206,-0.0202,-0.0245,-0.0245,-0.0245,0,0,0.0042,0.002,0.0036,0.003,0.0018,0.0004,0.0007,-0.0022,-0.0039,-0.0044,-0.0087,-0.0112,-0.0132,-0.0152,-0.0162,-0.0139,-0.0174,-0.015,-0.0108,-0.0132,-0.0129,-0.0126,-0.0146,-0.0146,-0.0144,-0.0144,-0.0144,0,0.0064,0.0078,0.0042,0.0063,0.0069,0.0025,0.0055,0.0038,0.0007,-0.0004,-0.0034,-0.0085,-0.0111,-0.0112,-0.0112,-0.0126,-0.0148,-0.0125,-0.0125,-0.0123,-0.0121,-0.0143,-0.0143,-0.0141,-0.0141,-0.0142,-0.0142,0,0.0124,0.013,0.0146,0.0153,0.0156,0.0177,0.0153,0.0144,0.0112,0.0081,0.0055,0.0005,-0.0025,-0.0044,-0.0069,-0.0073,-0.0095,-0.0118,-0.0135,-0.0113,-0.0138,-0.0139,-0.0137,-0.0138,-0.0139,-0.0139,0,0,0.0192,0.0188,0.0194,0.0206,0.0207,0.0219,0.0234,0.0231,0.0239,0.0179,0.018,0.0126,0.0074,0.0058,0.001,-0.0018,-0.0031,-0.006,-0.0063,-0.0073,-0.0083,-0.0102,-0.0106,-0.0058,-0.0058,-0.0058,-0.0104,0,0.0254,0.0304,0.0287,0.0337,0.0363,0.0332,0.0354,0.034,0.031,0.0295,0.022,0.0199,0.0122,0.0106,0.0065,-0.0006,-0.0033,-0.0016,-0.0109,-0.0111,-0.0125,-0.0108,-0.0083,-0.0122,-0.0106,-0.0106,-0.0106,0,0.0328,0.0347,0.0407,0.0423,0.0435,0.0459,0.0482,0.0491,0.0456,0.0429,0.0376,0.0311,0.0254,0.0189,0.0077,0.0089,0.0013,-0.005,-0.0054,-0.0091,-0.0132,-0.0143,-0.0126,-0.011,-0.0109,-0.0109,-0.0109,0,0.0401,0.0433,0.0483,0.0492,0.0509,0.053,0.054,0.0529,0.0546,0.0508,0.0509,0.0415,0.0379,0.0266,0.0121,0.0102,-0.0,-0.004,-0.0128,-0.013,-0.0136,-0.0139,-0.0108,-0.0108,-0.0107,-0.0107,-0.0107,0,0.048,0.0517,0.0518,0.0547,0.0608,0.0596,0.0654,0.0645,0.065,0.0684,0.0578,0.0582,0.0394,0.0304,0.0165,0.0017,0.0033,-0.0113,-0.0141,-0.0115,-0.0115,-0.0129,-0.0131,-0.0109,-0.0109,-0.0108,-0.0108,0,0.0551,0.0555,0.0606,0.0629,0.0643,0.0685,0.0728,0.0767,0.076,0.0803,0.0797,0.0707,0.0586,0.04,0.0222,0.0086,-0.0058,-0.0113,-0.0071,-0.0093,-0.0184,-0.0183,-0.0214,-0.0215,-0.0216,-0.0217,-0.0217,0,0.0592,0.0627,0.0665,0.0699,0.0711,0.0764,0.081,0.0822,0.0867,0.0887,0.0918,0.0817,0.076,0.0485,0.0228,-0.0009,-0.0048,-0.0144,-0.0181,-0.017,-0.0194,-0.0191,-0.0188,-0.0166,-0.0166,-0.0166,-0.0166,0,0.0661,0.0671,0.0704,0.0771,0.0822,0.0886,0.0945,0.1003,0.1032,0.107,0.1102,0.1063,0.0805,0.0553,0.022,0.0062,-0.011,-0.0154,-0.0145,-0.0143,-0.0129,-0.0151,-0.0149,-0.0167,-0.0167,-0.0167,-0.0167,-0.0167,0.0702,0.0734,0.0773,0.0839,0.0903,0.0991,0.1054,0.1124,0.1209,0.1272,0.1239,0.1195,0.0911,0.0487,0.0189,-0.012,-0.0105,-0.0216,-0.0214,-0.0213,-0.0199,-0.0187,-0.0233,-0.0234,-0.0234,-0.0234,-0.0234,0,0.0741,0.0775,0.0837,0.0911,0.0989,0.1018,0.1136,0.1202,0.1305,0.1367,0.1386,0.114,0.0858,0.0538,0.0077,-0.0199,-0.0217,-0.0283,-0.0251,-0.0247,-0.0244,-0.0232,-0.0276,-0.0277,-0.0278,-0.0279,0,0,0.0759,0.0817,0.0843,0.0964,0.1027,0.1136,0.1208,0.1308,0.1379,0.1432,0.1419,0.1365,0.0976,0.0633,0.025,-0.0019,-0.0066,-0.0064,0.0003,0.009,0.0095,-0.0171,-0.0143,0,0,0,0,0]}],[{"header":{"parameterUnit":"m.s-1","parameterCategory":2,"la1":30.2991,"la2":30.254,"lo1":-89.0895,"lo2":-89.0444,"dy":0.0017,"dx":0.0017,"nx":28,"ny":28,"refTime":"2024-04-30T09:00:00:Z","depth":"4","parameterNumber":2,"parameterNumberName":"U-component_of_CURRENTS"},"data":[0,0,0,0,0,0,0,0,0,0,0,0,0,0,0,0,0,0,0,0,0,0,0,0,0,0,0,0,0,0,0,0,0,0,0,0,0,0,0,0,0,0,0,0,0,0,0,0,0,0,0,0,0,0,0,0,0,0,0.1381,0.1381,0,0.1424,0.1425,0.1426,0.1484,0.1485,0.1485,0.1486,0.1589,0.1591,0.1593,0,0,0,0,0,0,0,0,0,0,0,0,0,0.1378,0.1378,0.1381,0.1381,0.1381,0.1424,0.1425,0.1426,0.1484,0.1485,0.1486,0.1486,0.1588,0.159,0.1593,0,0,0,0,0,0,0,0,0,0,0,0,0,0.1399,0.1377,0.1381,0.1413,0.1416,0.1424,0.1425,0.1426,0.1484,0.1485,0.1486,0.1487,0.1587,0.159,0.1593,0.1592,0,0,0.1603,0.1604,0,0,0,0,0,0,0,0,0.1397,0.1399,0.1408,0.1411,0.1414,0.1447,0.1461,0.1483,0.1484,0.1461,0.1486,0.1487,0.1544,0.1551,0.156,0.1596,0.1601,0.1603,0.1605,0.1606,0.1607,0,0,0,0,0,0,0,0.1396,0.1398,0.1401,0.1408,0.1412,0.1436,0.144,0.1466,0.15,0.1463,0.1467,0.1467,0.1547,0.1557,0.1563,0.1602,0.1603,0.1606,0.1608,0.1609,0.1737,0.1739,0,0,0,0,0,0,0.1382,0.1396,0.14,0.1402,0.1405,0.1434,0.1439,0.1438,0.1498,0.1507,0.1466,0.1469,0.1551,0.1559,0.1567,0.1678,0.1606,0.1609,0.1611,0.1736,0.1737,0.1739,0,0,0,0,0,0,0.1381,0.1381,0.1398,0.1398,0.1401,0.1433,0.1431,0.1438,0.1482,0.1499,0.151,0.1506,0.1552,0.1563,0.1631,0.1679,0.1611,0.1613,0.1734,0.1736,0.1738,0.1831,0,0,0,0,0,0,0.1381,0.1381,0.1389,0.1397,0.1401,0.1427,0.143,0.1438,0.1477,0.1483,0.1536,0.1545,0.1554,0.1626,0.1634,0.1682,0.1616,0.1732,0.1735,0.1738,0.1826,0.1836,0.1845,0,0,0,0,0,0.1381,0.1385,0.1389,0.139,0.1406,0.1428,0.1434,0.1461,0.1478,0.1504,0.1548,0.1545,0.1649,0.163,0.1639,0.1689,0.173,0.1734,0.1737,0.1822,0.1834,0.1845,0,0,0,0,0,0,0.1393,0.1391,0.1396,0.1402,0.1423,0.1437,0.1467,0.1479,0.1532,0.1552,0.1571,0.1583,0.166,0.1656,0.1634,0.1731,0.1687,0.1692,0.1748,0.176,0.1769,0.174,0.1619,0,0,0,0,0,0.1394,0.1404,0.1406,0.142,0.1434,0.1457,0.1475,0.1491,0.1527,0.1553,0.1586,0.1625,0.1673,0.1704,0.1735,0.179,0.1786,0.1824,0.1833,0.1841,0.1822,0.1868,0.188,0.175,0.175,0.175,0,0,0.1396,0.1406,0.1407,0.1425,0.1451,0.1472,0.1474,0.1513,0.1545,0.1555,0.163,0.1665,0.1695,0.1764,0.1796,0.1773,0.1883,0.1846,0.1853,0.1828,0.1872,0.1885,0.1896,0.1753,0.1752,0.1752,0,0,0.1414,0.1427,0.1441,0.1462,0.1498,0.1509,0.1526,0.1557,0.1596,0.1658,0.168,0.1738,0.1805,0.1833,0.1857,0.1932,0.1932,0.1953,0.1982,0.2028,0.2039,0.2048,0.2088,0.21,0.1957,0.1957,0.1957,0,0.1419,0.1436,0.1452,0.1479,0.1502,0.1529,0.1556,0.1594,0.1644,0.1678,0.1696,0.18,0.1833,0.1907,0.194,0.1954,0.1978,0.1943,0.2041,0.205,0.2058,0.2096,0.2108,0.1962,0.1961,0.1961,0.196,0,0.144,0.1466,0.1488,0.1524,0.1551,0.1586,0.1624,0.1667,0.1715,0.1746,0.184,0.1888,0.1946,0.1974,0.1988,0.2064,0.2065,0.2053,0.2014,0.2077,0.2113,0.2124,0.1969,0.1967,0.1966,0.1964,0,0,0.1425,0.1483,0.1499,0.1526,0.158,0.1605,0.1666,0.1721,0.1775,0.1836,0.1908,0.1992,0.2019,0.2045,0.2075,0.2109,0.2207,0.2112,0.2112,0.2152,0.2319,0.2187,0.2186,0.2227,0.2229,0.223,0.2332,0,0.1444,0.1491,0.1522,0.1582,0.1606,0.1653,0.1713,0.177,0.1834,0.191,0.1968,0.2057,0.2051,0.2108,0.2142,0.2193,0.2235,0.218,0.2248,0.2249,0.2125,0.2193,0.2236,0.234,0.2342,0.2344,0.2345,0,0.1453,0.1488,0.1538,0.1614,0.1636,0.1682,0.1776,0.1835,0.1932,0.1991,0.2062,0.2113,0.2194,0.2181,0.2278,0.2253,0.229,0.2312,0.2316,0.2155,0.2135,0.2255,0.2364,0.2363,0.2361,0.236,0.2359,0,0.1429,0.1504,0.1547,0.1571,0.1654,0.1707,0.177,0.1864,0.1924,0.2052,0.2104,0.2198,0.2269,0.2318,0.2372,0.2348,0.2463,0.2438,0.2347,0.234,0.2387,0.2376,0.2498,0.2498,0.2498,0.2498,0.2497,0,0.1417,0.1464,0.1549,0.1574,0.1649,0.1721,0.1813,0.1888,0.1994,0.2061,0.2156,0.2211,0.231,0.238,0.2409,0.2411,0.2504,0.2351,0.2354,0.2428,0.2419,0.2397,0.2384,0.2501,0.25,0.25,0.2499,0,0.1379,0.1431,0.1491,0.1596,0.1635,0.1699,0.1821,0.1877,0.1997,0.2083,0.2132,0.2253,0.2348,0.2422,0.2519,0.2451,0.2475,0.2457,0.2548,0.2555,0.2311,0.2302,0.2349,0.2345,0.2342,0.2339,0.2337,0,0.1358,0.1381,0.1496,0.1532,0.1589,0.1684,0.174,0.1868,0.192,0.2083,0.2112,0.2252,0.232,0.2344,0.2434,0.2484,0.2455,0.2444,0.234,0.2296,0.2295,0.2291,0.2287,0.2332,0.2331,0.233,0.2329,0,0.1319,0.1374,0.1422,0.1489,0.1558,0.1612,0.1709,0.1728,0.1871,0.1989,0.2047,0.2096,0.2198,0.2262,0.2328,0.235,0.243,0.2408,0.2414,0.2316,0.2275,0.2277,0.2276,0.2318,0.2319,0.232,0.2321,0,0.1302,0.1319,0.1381,0.143,0.1503,0.1522,0.1579,0.1637,0.17,0.1874,0.1894,0.2044,0.2177,0.2196,0.2254,0.2272,0.2226,0.2131,0.215,0.2164,0.2054,0.1971,0.1924,0,0,0,0,0,0.1272,0.1268,0.1309,0.1347,0.1412,0.145,0.1543,0.1599,0.1727,0.1725,0.1802,0.189,0.1963,0.2042,0.2025,0.2179,0.224,0.2147,0.214,0.2254,0.2267,0.2154,0,0,0,0,0,0,0.1247,0.128,0.1277,0.1263,0.1273,0.1325,0.1378,0.1465,0.1467,0.1611,0.1668,0.1777,0.1888,0.1966,0.1992,0.2017,0.1973,0.2247,0.2242,0.2247,0.2259,0.2269,0.2158,0,0,0,0,0]},{"header":{"parameterUnit":"m.s-1","parameterCategory":2,"la1":30.2991,"la2":30.254,"lo1":-89.0895,"lo2":-89.0444,"dy":0.0017,"dx":0.0017,"nx":28,"ny":28,"refTime":"2024-04-30T09:00:00:Z","depth":"4","parameterNumber":3,"parameterNumberName":"V-component_of_CURRENTS"},"data":[0,0,0,0,0,0,0,0,0,0,0,0,0,0,0,0,0,0,0,0,0,0,0,0,0,0,0,0,0,0,0,0,0,0,0,0,0,0,0,0,0,0,0,0,0,0,0,0,0,0,0,0,0,0,0,0,0,0,0.0082,0.0081,0,0.0044,0.0043,0.0042,-0.0011,-0.0012,-0.0013,-0.0013,-0.0071,-0.0072,-0.0073,0,0,0,0,0,0,0,0,0,0,0,0,0,0.0069,0.0069,0.0082,0.0081,0.0081,0.0044,0.0043,0.0042,-0.0011,-0.0012,-0.0013,-0.0014,-0.0071,-0.0072,-0.0073,0,0,0,0,0,0,0,0,0,0,0,0,0,0.0054,0.0069,0.0082,0.0052,0.0049,0.0044,0.0043,0.0042,-0.0011,-0.0012,-0.0013,-0.0014,-0.0071,-0.0072,-0.0073,-0.0062,0,0,-0.0078,-0.0078,0,0,0,0,0,0,0,0,0.0055,0.0055,0.0057,0.0054,0.0051,0.0022,0.0017,0.0007,-0.0011,0.0009,-0.0013,-0.0015,-0.0039,-0.0043,-0.0052,-0.0064,-0.0067,-0.0078,-0.0079,-0.0079,-0.008,0,0,0,0,0,0,0,0.0056,0.0056,0.0064,0.0056,0.0053,0.0027,0.0024,0.0015,-0.0012,0.0007,0.0004,0.0004,-0.0042,-0.005,-0.0054,-0.0068,-0.0078,-0.0079,-0.008,-0.008,-0.0082,-0.0081,0,0,0,0,0,0,0.007,0.0057,0.0065,0.0063,0.0054,0.0029,0.0025,0.003,-0.0011,-0.0017,0.0005,0.0002,-0.0048,-0.0052,-0.0056,-0.0044,-0.0079,-0.008,-0.0081,-0.0083,-0.0082,-0.0081,0,0,0,0,0,0,0.007,0.0071,0.0067,0.0061,0.0059,0.0031,0.0036,0.003,0.002,-0.0012,-0.002,0.0002,-0.0049,-0.0054,-0.0063,-0.0047,-0.0081,-0.0082,-0.0084,-0.0082,-0.0081,-0.0021,0,0,0,0,0,0,0.007,0.0072,0.008,0.0062,0.006,0.0071,0.0037,0.003,0.0024,0.0019,-0.0016,-0.0023,-0.005,-0.0061,-0.0064,-0.005,-0.0083,-0.0085,-0.0083,-0.0082,-0.0024,-0.0018,-0.0013,0,0,0,0,0,0.0069,0.0093,0.0081,0.0082,0.0072,0.0072,0.0069,0.0042,0.0025,0.0028,0.0001,-0.0022,-0.0054,-0.0061,-0.0066,-0.0051,-0.0085,-0.0083,-0.0082,-0.0027,-0.002,-0.0013,0,0,0,0,0,0,0.01,0.009,0.0076,0.0096,0.0086,0.0064,0.0069,0.005,0.0031,0.0028,-0.0012,-0.002,-0.0023,-0.0042,-0.0049,-0.0047,-0.0073,-0.0072,-0.003,-0.0023,-0.0018,0.0001,-0.0084,0,0,0,0,0,0.011,0.0119,0.0105,0.0122,0.0119,0.0093,0.009,0.0076,0.0058,0.0048,0.002,-0.0003,-0.0018,-0.0025,-0.0042,-0.0037,-0.0062,-0.003,-0.0024,-0.002,-0.0007,-0.0032,-0.0027,-0.0075,-0.0075,-0.0075,0,0,0.0129,0.0123,0.013,0.0128,0.0116,0.0126,0.0088,0.0093,0.0102,0.0047,0.0046,0.0015,-0.0013,-0.0013,-0.0015,-0.0027,-0.0021,-0.0017,-0.0013,-0.0003,-0.003,-0.0025,-0.0021,-0.0074,-0.0074,-0.0074,0,0,0.0169,0.0164,0.0181,0.0177,0.0169,0.0157,0.0162,0.0142,0.0131,0.0129,0.009,0.0071,0.0049,0.0029,0.0018,0.0048,0.0008,0.0043,0.0089,0.0064,0.0068,0.0071,0.0036,0.0035,0.0048,0.0048,0.0048,0,0.0191,0.0209,0.0187,0.0201,0.0208,0.0175,0.0198,0.0189,0.0167,0.0165,0.0139,0.0102,0.0071,0.0074,0.0078,0.0061,0.0037,0.0065,0.0071,0.0074,0.0076,0.0039,0.0038,0.0051,0.005,0.005,0.005,0,0.0238,0.0253,0.0266,0.0271,0.0275,0.0293,0.0279,0.0279,0.0258,0.024,0.0232,0.0185,0.0163,0.0149,0.0121,0.0126,0.0099,0.0079,0.0055,0.0084,0.0044,0.0041,0.0055,0.0054,0.0053,0.0052,0,0,0.029,0.0297,0.0303,0.0315,0.0315,0.0327,0.0345,0.0351,0.0365,0.033,0.0339,0.03,0.0263,0.0249,0.0208,0.0185,0.0165,0.0144,0.0141,0.011,0.0104,0.0074,0.0068,0.0145,0.0145,0.0145,0.0067,0,0.0333,0.0374,0.0368,0.0412,0.0431,0.0416,0.0438,0.0439,0.0423,0.0421,0.0373,0.0362,0.0306,0.0294,0.0263,0.019,0.0163,0.0188,0.0079,0.0076,0.0047,0.0066,0.0146,0.0064,0.0064,0.0063,0.0063,0,0.038,0.0399,0.045,0.0478,0.0487,0.0513,0.054,0.0558,0.0547,0.0532,0.0507,0.046,0.042,0.0368,0.0266,0.0284,0.0206,0.0145,0.014,0.0093,0.0042,0.003,0.0058,0.0058,0.0058,0.0059,0.0059,0,0.042,0.0459,0.0503,0.0514,0.0541,0.0568,0.0587,0.0592,0.0613,0.0603,0.0602,0.0544,0.051,0.0417,0.0278,0.0275,0.0157,0.0133,0.0034,0.003,0.0053,0.0051,0.0071,0.0071,0.0071,0.0071,0.0071,0,0.0465,0.0502,0.0528,0.0553,0.0612,0.0617,0.0675,0.0682,0.0698,0.0722,0.0663,0.0652,0.0521,0.0429,0.0308,0.0159,0.0175,0.0049,0.0014,0.0078,0.008,0.005,0.0049,0.0068,0.0069,0.0069,0.007,0,0.0499,0.0519,0.0569,0.0611,0.0632,0.0674,0.0733,0.077,0.0777,0.0806,0.0805,0.0732,0.0608,0.0462,0.0298,0.0195,0.0058,0.0,0.0076,0.0045,-0.006,-0.0058,-0.0107,-0.0108,-0.011,-0.0111,-0.0112,0,0.0518,0.0548,0.0609,0.0644,0.0667,0.0729,0.0776,0.0809,0.0842,0.0845,0.0855,0.0757,0.0682,0.0435,0.0277,0.0051,0.0013,-0.0056,-0.005,-0.0046,-0.0076,-0.0071,-0.0067,-0.0114,-0.0114,-0.0115,-0.0115,0,0.0546,0.057,0.0606,0.0676,0.0733,0.0798,0.0858,0.0888,0.0922,0.0931,0.0888,0.0763,0.062,0.0429,0.0248,0.0086,-0.0006,-0.007,-0.0069,-0.0064,-0.0056,-0.0082,-0.0077,-0.012,-0.0119,-0.0119,-0.0118,0,0.0561,0.0586,0.0634,0.0695,0.077,0.0834,0.0871,0.0901,0.0934,0.0934,0.0915,0.0769,0.0691,0.0445,0.0281,0.0116,0.0073,0.0023,0.0019,0.0023,0.0078,0.0109,0.0074,0,0,0,0,0,0.0565,0.059,0.0647,0.0711,0.0788,0.0832,0.091,0.0939,0.0971,0.0946,0.0932,0.0797,0.0556,0.0458,0.0287,0.0242,0.0036,0.0035,-0.0024,-0.0145,-0.014,-0.01,0,0,0,0,0,0,0.0563,0.0613,0.0636,0.0712,0.0761,0.0846,0.0898,0.0924,0.0908,0.0916,0.0792,0.0746,0.0511,0.0647,0.0279,0.0231,0.0168,-0.007,-0.0074,-0.0148,-0.0143,-0.0139,-0.0096,0,0,0,0,0]}]]